Location: Unspecified
(42.0334°N, 93.6656°W)
Time: 01:47:54
(UTC-05:00)

Amateur Radio Satellites - All Passes

Search period start: 25 July 2017 01:17
Search period end: 26 July 2017 01:17
Location: Unspecified, 42.0334°N, 93.6656°W

Satellite Date Start Highest point End Downlink Frequencies (MHz)
Time Altitude Azimuth
Tancredo 1 25 Jul 01:21:00 01:23:05 17° 15° (NNE) 01:25:11 437.200
50 SAT 25 Jul 01:22:17 01:25:40 77° 75° (ENE) 01:29:05 437.505
DUCHIFAT 1 25 Jul 01:23:43 01:27:56 89° 112° (ESE) 01:32:05 145.980
POLYITAN 1 25 Jul 01:25:53 01:30:04 69° 285° (WNW) 01:34:13 437.675
UKube-1 25 Jul 01:31:13 01:35:18 44° 71° (ENE) 01:39:26 .
O/OREOS (USA 219) 25 Jul 01:32:44 01:37:12 60° 65° (ENE) 01:41:38 437.305
SPROUT 25 Jul 01:35:04 01:38:49 29° 264° (W) 01:42:35 437.525
nSIGHT-1 25 Jul 01:36:51 01:39:01 16° 9° (N) 01:41:11 .
QB50P2 25 Jul 01:39:04 01:43:05 44° 288° (WNW) 01:47:05 145.880/145.840
EO-79 25 Jul 01:51:19 01:55:11 36° 290° (WNW) 01:59:01 145.935-145.965
NANOSAT C BR1 25 Jul 01:51:26 01:55:22 39° 289° (WNW) 01:59:15 145.865
BUGSAT 1 25 Jul 01:53:30 01:57:31 52° 100° (E) 02:01:28 437.445
Oscar 19 25 Jul 02:05:10 02:09:40 29° 96° (E) 02:14:09 437.125/150
VELOX 1 25 Jul 02:20:55 02:22:44 12° 270° (W) 02:24:32 145.980
DX 1 25 Jul 02:24:26 02:28:19 32° 263° (W) 02:32:16 434.975-435.025
MOZHAYETS 4 25 Jul 02:27:22 02:29:43 14° 62° (ENE) 02:32:05
Gurwin Techsat 1B 25 Jul 02:29:30 02:34:16 32° 96° (E) 02:38:58 435.225
ISS 25 Jul 02:30:40 02:33:26 25° 20° (NNE) 02:36:11 437.550
Tancredo 1 25 Jul 02:55:55 02:58:53 76° 34° (NE) 03:01:50 437.200
BEESAT 25 Jul 02:59:50 03:04:19 42° 70° (ENE) 03:08:47 436.000
RS-15 25 Jul 03:06:57 03:17:42 41° 253° (WSW) 03:27:59 29.354- 29.394
UKube-1 25 Jul 03:08:46 03:11:32 17° 267° (W) 03:14:20 .
ITUPSAT 1 25 Jul 03:12:44 03:17:24 55° 72° (ENE) 03:22:05 437.325
nSIGHT-1 25 Jul 03:12:54 03:16:01 44° 29° (NNE) 03:19:08 .
O/OREOS (USA 219) 25 Jul 03:13:59 03:16:02 13° 262° (W) 03:18:06 437.305
BUGSAT 1 25 Jul 03:30:19 03:32:24 14° 297° (WNW) 03:34:29 437.445
Oscar 19 25 Jul 03:44:21 03:48:59 35° 292° (WNW) 03:53:37 437.125/150
ITAMSAT 1 25 Jul 03:56:35 04:00:47 24° 94° (E) 04:04:56 435.822/435.867
MOZHAYETS 4 25 Jul 04:01:47 04:06:20 65° 258° (WSW) 04:10:54
ISS 25 Jul 04:06:53 04:10:07 61° 218° (SW) 04:13:20 437.550
Gurwin Techsat 1B 25 Jul 04:09:25 04:14:10 33° 293° (WNW) 04:18:53 435.225
AO-7 25 Jul 04:28:00 04:36:06 51° 102° (ESE) 04:44:07 .
Tancredo 1 25 Jul 04:33:07 04:33:52 11° 229° (SW) 04:34:37 437.200
CUBESAT XI-V 25 Jul 04:36:04 04:40:33 56° 73° (ENE) 04:45:03 437.345
BEESAT 25 Jul 04:38:37 04:42:14 21° 266° (W) 04:45:52 436.000
KKS-1 25 Jul 04:43:50 04:47:58 38° 70° (ENE) 04:52:09 437.445
nSIGHT-1 25 Jul 04:49:40 04:52:15 22° 225° (SW) 04:54:50 .
ITUPSAT 1 25 Jul 04:52:36 04:55:33 16° 268° (W) 04:58:31 437.325
STARS 25 Jul 05:13:58 05:17:57 34° 69° (ENE) 05:21:58 437.465
PCSat 25 Jul 05:15:54 05:21:00 43° 112° (ESE) 05:26:07 145.827
ITAMSAT 1 25 Jul 05:35:29 05:40:23 42° 291° (WNW) 05:45:14 435.822/435.867
SO-50 25 Jul 05:39:09 05:40:10 11° 107° (ESE) 05:41:11 436.795
YUBILEINY 25 Jul 05:58:56 06:07:23 48° 75° (ENE) 06:15:42 435.215
DOVE 4 25 Jul 06:12:14 06:17:07 37° 96° (E) 06:21:47 437.250
LilacSat-2 25 Jul 06:15:31 06:16:46 11° 90° (E) 06:18:01 437.200
CUBESAT XI-V 25 Jul 06:15:43 06:18:16 15° 270° (W) 06:20:49 437.345
AO-7 25 Jul 06:21:06 06:28:38 39° 301° (WNW) 06:36:09 .
KKS-1 25 Jul 06:21:19 06:24:39 20° 266° (W) 06:28:00 437.445
XW-2F 25 Jul 06:29:12 06:31:25 15° 92° (E) 06:33:36 145.980 - 146.000
STARS 25 Jul 06:50:50 06:54:20 23° 265° (W) 06:57:52 437.465
XW-2D 25 Jul 06:56:55 07:00:24 35° 98° (E) 07:03:52 145.860 - 145.880
PCSat 25 Jul 06:59:45 07:04:31 30° 311° (NW) 07:09:18 145.827
XW-2B 25 Jul 07:06:52 07:10:30 45° 99° (E) 07:14:07 145.730 - 145.750
SO-50 25 Jul 07:15:24 07:19:56 83° 304° (WNW) 07:24:29 436.795
CUTE-I 25 Jul 07:22:36 07:27:52 55° 101° (E) 07:33:05 437.470
XW-2C 25 Jul 07:24:07 07:27:53 78° 102° (ESE) 07:31:39 145.795 - 145.815
STRAND 1 25 Jul 07:24:20 07:29:19 51° 71° (ENE) 07:34:18 437.568
HO-68 25 Jul 07:29:23 07:34:51 23° 92° (E) 07:40:18 435.675
NUDT-PHONESAT 25 Jul 07:31:47 07:35:27 71° 101° (E) 07:39:07 437.300
CUTE 1.7 + AOD 2 25 Jul 07:45:48 07:49:08 22° 94° (E) 07:52:26 437.475
KAITUO 1B 25 Jul 07:46:13 07:49:56 73° 284° (WNW) 07:53:39 145.475/437.950
LilacSat-2 25 Jul 07:47:39 07:51:19 49° 286° (WNW) 07:55:00 437.200
DOVE 4 25 Jul 07:50:06 07:54:36 29° 293° (WNW) 07:58:58 437.250
YUBILEINY 25 Jul 07:56:08 08:03:55 38° 275° (W) 08:11:40 435.215
SEEDS 25 Jul 07:58:09 08:01:10 19° 93° (E) 08:04:11 437.485
XW-2F 25 Jul 08:02:13 08:05:40 36° 288° (WNW) 08:09:08 145.980 - 146.000
FO-29 25 Jul 08:09:55 08:14:54 19° 54° (NE) 08:19:54 435.910
UWE-3 25 Jul 08:24:14 08:26:56 17° 92° (E) 08:29:37 435.000/436.395/437.385
XW-2D 25 Jul 08:31:54 08:34:18 16° 293° (WNW) 08:36:41 145.860 - 145.880
ZACube-1 25 Jul 08:38:26 08:40:19 13° 90° (E) 08:42:11 437.345
AAUSAT CUBESAT 2 25 Jul 08:41:05 08:44:35 26° 95° (E) 08:48:05 437.432
XW-2B 25 Jul 08:42:27 08:44:18 13° 295° (WNW) 08:46:08 145.730 - 145.750
XW-2A 25 Jul 08:48:23 08:51:43 71° 101° (ESE) 08:55:02 145.665 - 145.685
SO-50 25 Jul 08:58:42 09:01:06 14° 323° (NW) 09:03:31 436.795
CUBEBUG 2 25 Jul 09:01:39 09:05:55 78° 102° (ESE) 09:10:05 437.445
CUTE-I 25 Jul 09:03:34 09:07:30 21° 298° (WNW) 09:11:23 437.470
Oscar 11 25 Jul 09:03:34 09:06:29 18° 92° (E) 09:09:24 .
STRAND 1 25 Jul 09:05:04 09:08:46 20° 267° (W) 09:12:28 437.568
HO-68 25 Jul 09:16:01 09:23:07 67° 290° (WNW) 09:30:10 435.675
AO-73 25 Jul 09:17:05 09:20:47 31° 96° (E) 09:24:27 145.935
CUTE 1.7 + AOD 2 25 Jul 09:21:12 09:24:59 32° 290° (WNW) 09:28:46 437.475
TIGRISAT 25 Jul 09:30:21 09:34:02 24° 67° (ENE) 09:37:40 435.000
SEEDS 25 Jul 09:33:04 09:36:58 37° 289° (WNW) 09:40:50 437.485
M-CUBED/EXP-1 PRIME 25 Jul 09:38:45 09:41:05 16° 58° (ENE) 09:43:32 437.505
DELFI C3 25 Jul 09:44:09 09:45:19 11° 90° (E) 09:46:29 145.870
FO-29 25 Jul 09:51:03 09:58:41 80° 73° (ENE) 10:06:35 435.910
UWE-3 25 Jul 09:59:39 10:03:35 40° 288° (WNW) 10:07:27 435.000/436.395/437.385
EO-88 25 Jul 10:08:29 10:09:55 12° 91° (E) 10:11:22 145.990 - 145.960
ZACube-1 25 Jul 10:12:53 10:16:56 51° 286° (WNW) 10:20:55 437.345
PRISM 25 Jul 10:15:48 10:19:50 62° 74° (ENE) 10:23:55 437.425
AAUSAT CUBESAT 2 25 Jul 10:16:28 10:19:59 27° 291° (WNW) 10:23:30 437.432
UNISAT 6 25 Jul 10:21:32 10:26:12 85° 75° (ENE) 10:30:47 437.425
Oscar 11 25 Jul 10:38:44 10:42:48 41° 288° (WNW) 10:46:51 .
CUBEBUG 2 25 Jul 10:41:26 10:41:51 10° 300° (WNW) 10:42:15 437.445
AO-73 25 Jul 10:53:41 10:56:51 22° 293° (WNW) 11:00:00 145.935
QB50P2 25 Jul 10:58:07 11:00:15 14° 63° (ENE) 11:02:23 145.880/145.840
HO-68 25 Jul 11:06:12 11:09:31 14° 310° (NW) 11:12:51 435.675
TIGRISAT 25 Jul 11:06:14 11:10:31 36° 263° (W) 11:14:44 435.000
EO-79 25 Jul 11:09:27 11:12:07 16° 64° (ENE) 11:14:48 145.935-145.965
NANOSAT C BR1 25 Jul 11:09:38 11:12:02 15° 64° (ENE) 11:14:25 145.865
M-CUBED/EXP-1 PRIME 25 Jul 11:11:42 11:15:07 41° 257° (WSW) 11:18:51 437.505
DELFI C3 25 Jul 11:16:29 11:20:26 57° 286° (WNW) 11:24:22 145.870
AIST 2D 25 Jul 11:28:14 11:31:36 50° 75° (ENE) 11:34:59 435.315
FO-29 25 Jul 11:38:46 11:44:24 22° 272° (W) 11:50:13 435.910
EO-88 25 Jul 11:40:20 11:43:49 42° 287° (WNW) 11:47:16 145.990 - 145.960
LO-87 25 Jul 11:44:08 11:47:03 23° 95° (E) 11:49:56 145.935 - 145.965
ESTCUBE 1 25 Jul 11:47:29 11:50:36 18° 93° (E) 11:53:41 437.505/2401.250
NO-84 25 Jul 11:52:30 11:55:31 86° 324° (NW) 11:58:48 435.350 FM
PRISM 25 Jul 11:54:33 11:55:31 11° 270° (W) 11:56:29 437.425
DUCHIFAT 1 25 Jul 12:15:16 12:19:29 66° 75° (ENE) 12:23:42 145.980
POLYITAN 1 25 Jul 12:18:09 12:22:27 90° 33° (NNE) 12:26:44 437.675
QB50P2 25 Jul 12:31:20 12:35:32 58° 259° (W) 12:39:46 145.880/145.840
VELOX 1 25 Jul 12:33:18 12:34:46 11° 90° (E) 12:36:15 145.980
BUGSAT 1 25 Jul 12:43:06 12:47:02 38° 71° (ENE) 12:50:58 437.445
NANOSAT C BR1 25 Jul 12:43:09 12:47:18 52° 260° (W) 12:51:28 145.865
EO-79 25 Jul 12:43:23 12:47:30 47° 261° (W) 12:51:38 145.935-145.965
AO-85 25 Jul 12:48:33 12:52:15 37° 117° (ESE) 12:55:53 145.980
LO-87 25 Jul 13:17:33 13:20:22 22° 291° (WNW) 13:23:10 145.935 - 145.965
SPROUT 25 Jul 13:19:36 13:23:42 43° 99° (E) 13:27:44 437.525
Oscar 19 25 Jul 13:22:16 13:27:06 45° 70° (ENE) 13:31:58 437.125/150
ESTCUBE 1 25 Jul 13:23:17 13:27:35 44° 289° (WNW) 13:31:53 437.505/2401.250
BEESAT 3 25 Jul 13:24:43 13:28:42 87° 303° (WNW) 13:32:46 437.485
NO-84 25 Jul 13:31:21 13:33:28 16° 340° (NNW) 13:35:43 435.350 FM
AO-7 25 Jul 13:39:01 13:43:59 18° 47° (NE) 13:48:57 .
Gurwin Techsat 1B 25 Jul 13:50:47 13:55:57 53° 71° (ENE) 14:01:08 435.225
DUCHIFAT 1 25 Jul 13:54:37 13:55:34 11° 271° (W) 13:56:31 145.980
PCSat 25 Jul 14:03:09 14:08:14 39° 52° (NE) 14:13:17 145.827
BEESAT 2 25 Jul 14:05:19 14:09:19 85° 126° (SE) 14:13:23 435.950
SO-50 25 Jul 14:06:56 14:09:42 16° 39° (NE) 14:12:27 436.795
VELOX 1 25 Jul 14:07:13 14:11:40 68° 286° (WNW) 14:16:05 145.980
DX 1 25 Jul 14:11:36 14:15:45 40° 99° (E) 14:19:51 434.975-435.025
50 SAT 25 Jul 14:16:17 14:19:44 72° 101° (ESE) 14:23:09 437.505
BUGSAT 1 25 Jul 14:19:33 14:22:31 18° 267° (W) 14:25:29 437.445
AO-85 25 Jul 14:29:38 14:32:43 21° 314° (NW) 14:35:49 145.980
UKube-1 25 Jul 14:53:16 14:57:37 77° 103° (ESE) 15:01:56 .
SPROUT 25 Jul 14:56:25 14:59:15 17° 295° (WNW) 15:02:04 437.525
Oscar 19 25 Jul 15:02:41 15:06:37 22° 267° (W) 15:10:35 437.125/150
BEESAT 3 25 Jul 15:05:10 15:06:54 12° 322° (NW) 15:08:39 437.485
NO-84 25 Jul 15:11:37 15:12:12 10° 2° (N) 15:12:47 435.350 FM
ITUPSAT 1 25 Jul 15:14:31 15:16:45 13° 90° (E) 15:18:58 437.325
ITAMSAT 1 25 Jul 15:14:38 15:19:28 40° 68° (ENE) 15:24:19 435.822/435.867
RS-15 25 Jul 15:17:35 15:28:12 37° 105° (ESE) 15:38:56 29.354- 29.394
AO-7 25 Jul 15:27:00 15:35:17 71° 68° (ENE) 15:43:38 .
Gurwin Techsat 1B 25 Jul 15:32:24 15:36:12 20° 268° (W) 15:40:02 435.225
O/OREOS (USA 219) 25 Jul 15:45:13 15:49:40 66° 109° (ESE) 15:54:07 437.305
BEESAT 2 25 Jul 15:45:40 15:47:39 13° 321° (NW) 15:49:38 435.950
SO-50 25 Jul 15:46:11 15:50:45 86° 242° (WSW) 15:55:20 436.795
PCSat 25 Jul 15:46:46 15:51:31 32° 250° (WSW) 15:56:13 145.827
DX 1 25 Jul 15:48:27 15:51:39 20° 295° (WNW) 15:54:48 434.975-435.025
MOZHAYETS 4 25 Jul 15:56:36 16:00:31 27° 95° (E) 16:04:24
UKube-1 25 Jul 16:31:45 16:33:00 11° 300° (WNW) 16:34:15 .
CUBESAT XI-V 25 Jul 16:33:37 16:35:57 14° 90° (E) 16:38:18 437.345
BEESAT 25 Jul 16:36:40 16:41:27 88° 286° (WNW) 16:46:12 436.000
NO-84 25 Jul 16:48:13 16:50:53 18° 23° (NNE) 16:53:41 435.350 FM
ITUPSAT 1 25 Jul 16:50:17 16:55:01 66° 287° (WNW) 16:59:43 437.325
ITAMSAT 1 25 Jul 16:54:40 16:59:01 26° 265° (W) 17:03:23 435.822/435.867
CUTE-I 25 Jul 17:08:16 17:10:49 14° 58° (ENE) 17:13:21 437.470
DOVE 4 25 Jul 17:17:29 17:21:58 37° 69° (ENE) 17:26:41 437.250
AO-7 25 Jul 17:22:00 17:28:40 26° 266° (W) 17:35:24 .
O/OREOS (USA 219) 25 Jul 17:27:03 17:29:33 14° 308° (NW) 17:32:02 437.305
RS-15 25 Jul 17:27:41 17:39:53 70° 308° (NW) 17:52:17 29.354- 29.394
MOZHAYETS 4 25 Jul 17:33:41 17:37:37 29° 292° (WNW) 17:41:33
XW-2D 25 Jul 17:39:06 17:41:46 19° 67° (ENE) 17:44:26 145.860 - 145.880
XW-2B 25 Jul 17:48:47 17:51:47 23° 69° (ENE) 17:54:48 145.730 - 145.750
HO-68 25 Jul 17:59:44 18:04:36 20° 55° (NE) 18:09:27 435.675
XW-2C 25 Jul 18:05:37 18:09:05 37° 72° (ENE) 18:12:34 145.795 - 145.815
CUBESAT XI-V 25 Jul 18:09:06 18:13:43 62° 286° (WNW) 18:18:21 437.345
KKS-1 25 Jul 18:10:15 18:14:45 73° 103° (ESE) 18:19:11 437.445
NUDT-PHONESAT 25 Jul 18:11:19 18:14:36 31° 71° (ENE) 18:17:53 437.300
BEESAT 25 Jul 18:17:22 18:18:27 11° 302° (WNW) 18:19:32 436.000
NO-84 25 Jul 18:25:00 18:28:50 79° 38° (NE) 18:32:58 435.350 FM
KAITUO 1B 25 Jul 18:26:13 18:29:47 50° 74° (ENE) 18:33:22 145.475/437.950
LilacSat-2 25 Jul 18:29:19 18:33:05 81° 78° (ENE) 18:36:52 437.200
STARS 25 Jul 18:38:29 18:42:51 61° 101° (E) 18:47:11 437.465
CUTE 1.7 + AOD 2 25 Jul 18:39:25 18:42:08 17° 65° (ENE) 18:44:51 437.475
XW-2F 25 Jul 18:42:43 18:46:27 77° 260° (W) 18:50:11 145.980 - 146.000
CUTE-I 25 Jul 18:44:42 18:50:05 89° 260° (W) 18:55:30 437.470
SEEDS 25 Jul 18:51:02 18:53:15 14° 64° (ENE) 18:55:31 437.485
DOVE 4 25 Jul 18:55:36 18:59:42 27° 267° (W) 19:04:00 437.250
YUBILEINY 25 Jul 18:59:55 19:08:26 55° 90° (E) 19:16:56 435.215
XW-2D 25 Jul 19:12:26 19:15:45 29° 264° (W) 19:19:04 145.860 - 145.880
XW-2A 25 Jul 19:20:12 19:22:57 24° 70° (ENE) 19:25:42 145.665 - 145.685
UWE-3 25 Jul 19:21:35 19:24:29 17° 65° (ENE) 19:27:19 435.000/436.395/437.385
XW-2B 25 Jul 19:22:51 19:25:54 23° 265° (W) 19:28:57 145.730 - 145.750
Tancredo 1 25 Jul 19:26:25 19:27:41 12° 131° (SE) 19:28:56 437.200
AAUSAT CUBESAT 2 25 Jul 19:32:02 19:34:52 18° 66° (ENE) 19:37:43 437.432
ZACube-1 25 Jul 19:35:02 19:36:55 13° 63° (ENE) 19:38:47 437.345
STRAND 1 25 Jul 19:35:36 19:38:48 17° 91° (E) 19:41:59 437.568
XW-2C 25 Jul 19:41:17 19:43:25 15° 268° (W) 19:45:34 145.795 - 145.815
HO-68 25 Jul 19:44:14 19:51:26 87° 256° (WSW) 19:58:39 435.675
RS-15 25 Jul 19:44:47 19:55:11 30° 337° (NNW) 20:05:31 29.354- 29.394
NUDT-PHONESAT 25 Jul 19:46:11 19:48:34 16° 267° (W) 19:50:57 437.300
KKS-1 25 Jul 19:48:53 19:50:41 12° 300° (WNW) 19:52:28 437.445
CUBEBUG 2 25 Jul 19:59:09 20:03:49 67° 75° (ENE) 20:08:23 437.445
Oscar 11 25 Jul 19:59:21 20:01:49 15° 64° (ENE) 20:04:18 .
KAITUO 1B 25 Jul 20:03:22 20:04:05 10° 270° (W) 20:04:47 145.475/437.950
NO-84 25 Jul 20:03:42 20:05:59 15° 235° (SW) 20:08:20 435.350 FM
AO-73 25 Jul 20:12:44 20:16:27 27° 69° (ENE) 20:20:06 145.935
CUTE 1.7 + AOD 2 25 Jul 20:13:38 20:17:37 43° 262° (W) 20:21:38 437.475
STARS 25 Jul 20:16:24 20:18:40 14° 298° (WNW) 20:20:57 437.465
SEEDS 25 Jul 20:24:28 20:28:30 51° 260° (W) 20:32:35 437.485
CUTE-I 25 Jul 20:29:27 20:30:50 11° 272° (W) 20:32:13 437.470
ISS 25 Jul 20:47:00 20:49:54 30° 137° (SE) 20:52:49 437.550
XW-2A 25 Jul 20:53:15 20:55:39 18° 266° (W) 20:58:04 145.665 - 145.685
UWE-3 25 Jul 20:56:05 21:00:32 51° 261° (W) 21:04:55 435.000/436.395/437.385
YUBILEINY 25 Jul 20:57:46 21:05:34 34° 290° (WNW) 21:13:26 435.215
Tancredo 1 25 Jul 20:59:47 21:02:42 66° 328° (NNW) 21:05:38 437.200
AAUSAT CUBESAT 2 25 Jul 21:06:14 21:10:03 37° 263° (W) 21:13:54 437.432
FO-29 25 Jul 21:06:42 21:07:06 10° 81° (E) 21:07:30 435.910
ZACube-1 25 Jul 21:08:14 21:12:40 67° 259° (W) 21:17:01 437.345
STRAND 1 25 Jul 21:13:20 21:18:22 59° 288° (WNW) 21:23:22 437.568
AO-85 25 Jul 21:18:23 21:22:19 38° 51° (NE) 21:26:29 145.980
nSIGHT-1 25 Jul 21:28:09 21:31:22 83° 145° (SE) 21:34:37 .
Oscar 11 25 Jul 21:33:20 21:37:31 52° 261° (W) 21:41:44 .
HO-68 25 Jul 21:36:11 21:40:05 15° 272° (W) 21:43:59 435.675
CUBEBUG 2 25 Jul 21:38:48 21:40:49 13° 270° (W) 21:42:50 437.445
BEESAT 3 25 Jul 21:41:06 21:45:04 59° 54° (NE) 21:48:58 437.485
AO-73 25 Jul 21:48:49 21:52:36 27° 264° (W) 21:56:20 145.935
DELFI C3 25 Jul 22:01:37 22:05:32 81° 76° (ENE) 22:09:31 145.870
RS-15 25 Jul 22:03:26 22:13:09 26° 12° (NNE) 22:22:36 29.354- 29.394
UNISAT 6 25 Jul 22:14:06 22:16:48 16° 91° (E) 22:19:30 437.425
EO-88 25 Jul 22:17:47 22:21:24 80° 78° (ENE) 22:25:03 145.990 - 145.960
LO-87 25 Jul 22:22:14 22:23:24 11° 64° (ENE) 22:24:33 145.935 - 145.965
BEESAT 2 25 Jul 22:22:34 22:26:35 56° 54° (NE) 22:30:32 435.950
ISS 25 Jul 22:23:18 22:26:20 35° 334° (NNW) 22:29:23 437.550
Tancredo 1 25 Jul 22:36:31 22:38:32 17° 346° (NNW) 22:40:32 437.200
FO-29 25 Jul 22:46:31 22:53:40 70° 102° (ESE) 22:59:54 435.910
ESTCUBE 1 25 Jul 22:47:40 22:50:41 18° 64° (ENE) 22:53:44 437.505/2401.250
M-CUBED/EXP-1 PRIME 25 Jul 22:50:25 22:52:45 14° 95° (E) 22:55:04 437.505
TIGRISAT 25 Jul 22:57:03 23:01:11 43° 98° (E) 23:05:13 435.000
AO-85 25 Jul 22:59:08 23:02:32 23° 246° (WSW) 23:06:06 145.980
nSIGHT-1 25 Jul 23:05:31 23:08:06 21° 343° (NNW) 23:10:40 .
BEESAT 3 25 Jul 23:20:27 23:22:07 12° 251° (WSW) 23:23:47 437.485
VELOX 1 25 Jul 23:31:16 23:32:56 12° 60° (ENE) 23:34:35 145.980
PRISM 25 Jul 23:31:35 23:35:46 84° 284° (WNW) 23:39:56 437.425
UNISAT 6 25 Jul 23:49:40 23:53:46 44° 288° (WNW) 23:57:49 437.425
LO-87 25 Jul 23:52:49 23:56:22 51° 260° (W) 23:59:56 145.935 - 145.965
ISS 26 Jul 00:01:24 00:03:30 16° 354° (N) 00:05:36 437.550
BEESAT 2 26 Jul 00:01:48 00:03:51 14° 251° (WSW) 00:05:54 435.950
POLYITAN 1 26 Jul 00:04:04 00:06:15 14° 91° (E) 00:08:25 437.675
SPROUT 26 Jul 00:13:04 00:16:58 35° 70° (ENE) 00:20:52 437.525
Tancredo 1 26 Jul 00:13:13 00:14:48 13° 6° (N) 00:16:24 437.200
QB50P2 26 Jul 00:16:19 00:19:33 21° 94° (E) 00:22:45 145.880/145.840
O/OREOS (USA 219) 26 Jul 00:16:39 00:19:26 16° 53° (NE) 00:22:11 437.305
RS-15 26 Jul 00:17:35 00:29:28 53° 44° (NE) 00:40:42 29.354- 29.394
ESTCUBE 1 26 Jul 00:22:51 00:27:08 46° 261° (W) 00:31:28 437.505/2401.250
M-CUBED/EXP-1 PRIME 26 Jul 00:22:54 00:27:30 68° 290° (WNW) 00:32:07 437.505
AIST 2D 26 Jul 00:25:39 00:29:07 59° 101° (E) 00:32:34 435.315
NANOSAT C BR1 26 Jul 00:27:24 00:30:45 23° 95° (E) 00:34:03 145.865
EO-79 26 Jul 00:27:49 00:31:20 25° 95° (E) 00:34:50 145.935-145.965
FO-29 26 Jul 00:32:32 00:37:54 23° 302° (WNW) 00:42:50 435.910
TIGRISAT 26 Jul 00:34:41 00:37:31 17° 296° (WNW) 00:40:19 435.000
nSIGHT-1 26 Jul 00:43:24 00:45:22 15° 3° (N) 00:47:21 .
50 SAT 26 Jul 00:48:10 00:51:01 25° 70° (ENE) 00:53:54 437.505
VELOX 1 26 Jul 01:04:20 01:08:45 74° 258° (WSW) 01:13:12 145.980
DX 1 26 Jul 01:07:16 01:11:16 37° 70° (ENE) 01:15:18 434.975-435.025
